STARLINK-36336

Last updated on Tue Mar 24 2026 00:02:05 GMT+0000 (Coordinated Universal Time)

1 67901U 26035Y 26082.32410680 .00290575 00000+0 18795-2 0 9990 2 67901 97.2859 15.4498 0001959 90.8755 269.2735 15.75238305 5990
UTC large
Height (km)
Speed (km/s)
/
Latitude / Longitude
Inclination (degrees)
Orbital Period (minutes)
Azimuth
Elevation
Range (km)
Doppler Factor

Next 0 passes for location: London (51.5072 / 0.1276)

Sorry there are no passes over London.